Terminal Aerodrome Forecast
Issued by NWS Wichita, KS

Home | Current Version | Previous Version | Text Only | Print | Product List | Glossary On
Versions: 1 2 3 4 5 6 7 8 9 10 11 12
000
FTUS43 KICT 101700
TAFICT
TAF
KICT 101720Z 1018/1118 16015G22KT P6SM FEW100 FEW250
     FM110200 16012KT P6SM SKC
     FM111500 20014G20KT P6SM SKC=

USA.gov is the U.S. government's official web portal to all federal, state and local government web resources and services.